Weather History for Gulkana, AK

Change the Weather History Date:

Sunday, October 21, 2012

  Actual Average Record
Temperature  
Mean Temperature 8 °F -  
Max Temperature 21 °F 30 °F 48 °F (1957)
Min Temperature -6 °F 15 °F -18 °F (1996)
Degree Days  
Heating Degree Days 57    
Moisture  
Dew Point -1 °F    
Average Humidity 69    
Maximum Humidity 85    
Minimum Humidity 37    
Precipitation  
Precipitation 0.00 in - - ()
Snow  
Snow 0.00 in - - ()
Snow Depth 1.00 in    
Sea Level Pressure  
Sea Level Pressure 30.46 in    
Wind  
Wind Speed 4 mph (NE)    
Max Wind Speed 16 mph    
Max Gust Speed 21 mph    
Visibility 10 miles    
Events      
Averages and records for this station are not official NWS values.
T = Trace of Precipitation, MM = Missing Value Source: NWS Daily Summary

Daily Weather History Graph

Daily Weather History Graph

Search for Another Location

Airport:

Trip Planner

Search our weather history database for the weather conditions in past years. The results will help you decide how hot, cold, wet, or windy it might be!

Date:

Astronomy

Oct. 21, 2012 Rise Set
Actual Time 8:45 AM AKDT 6:06 PM AKDT
Civil Twilight 7:58 AM AKDT 6:52 PM AKDT
Nautical Twilight 7:06 AM AKDT 7:44 PM AKDT
Astronomical Twilight 6:14 AM AKDT 8:36 PM AKDT
Moon 3:47 PM AKDT (10/21) 11:42 PM AKDT (10/21)
Length of Visible Light 10h 54m
Length of Day
9h 21m
Waxing Crescent, 47% of the Moon is Illuminated
Oct 21
Waxing Crescent
Oct 21
First Quarter
Oct 29
Full
Nov 6
Last Quarter
Nov 13
New

Hourly Weather History & Observations

Time (AKDT) Temp. Windchill Dew Point Humidity Pressure Visibility Wind Dir Wind Speed Gust Speed Precip Events Conditions
12:53 AM 19.9 °F 5.7 °F 6.1 °F 55% 30.41 in 10.0 mi North 16.1 mph 20.7 mph N/A   Clear
2:53 AM 18.0 °F 7.7 °F 6.1 °F 60% 30.41 in 10.0 mi NE 8.1 mph 18.4 mph N/A   Clear
3:53 AM 10.0 °F - 1.9 °F 70% 30.44 in 10.0 mi Calm Calm - N/A   Clear
4:53 AM 3.0 °F -4.4 °F -2.0 °F 80% 30.46 in 10.0 mi NE 3.5 mph - N/A   Clear
5:53 AM -0.0 °F -9.9 °F -4.0 °F 83% 30.48 in 10.0 mi NNE 4.6 mph - N/A   Clear
6:15 AM -0.4 °F -8.3 °F -4.0 °F 85% 30.33 in 10.0 mi NNE 3.5 mph - N/A   Clear
6:53 AM -0.9 °F - -5.1 °F 83% 30.49 in 10.0 mi Calm Calm - N/A   Clear
7:53 AM -4.0 °F -14.6 °F -8.0 °F 83% 30.50 in 10.0 mi North 4.6 mph - N/A   Clear
8:53 AM -4.0 °F - -9.0 °F 79% 30.51 in 10.0 mi Calm Calm - N/A   Partly Cloudy
9:53 AM 1.0 °F - -5.1 °F 75% 30.51 in 10.0 mi Calm Calm - N/A   Partly Cloudy
10:53 AM 12.0 °F - 3.9 °F 70% 30.49 in 10.0 mi Calm Calm - N/A   Clear
11:53 AM 12.0 °F - 3.9 °F 70% 30.49 in 10.0 mi Calm Calm - N/A   Clear
12:53 PM 14.0 °F 8.2 °F 3.9 °F 64% 30.48 in 10.0 mi ESE 3.5 mph - N/A   Clear
1:53 PM 17.1 °F - 5.0 °F 59% 30.47 in 10.0 mi Calm Calm - N/A   Clear
2:53 PM 19.9 °F - 5.0 °F 52% 30.45 in 10.0 mi Calm Calm - N/A   Clear
3:53 PM 19.9 °F 14.9 °F 5.0 °F 52% 30.46 in 10.0 mi South 3.5 mph - N/A   Clear
4:53 PM 19.9 °F - 5.0 °F 52% 30.46 in 10.0 mi Calm Calm - N/A   Clear
5:53 PM 15.1 °F - 3.9 °F 61% 30.46 in 10.0 mi Calm Calm - N/A   Clear
6:53 PM 7.0 °F - -0.0 °F 73% 30.48 in 10.0 mi Calm Calm - N/A   Clear
7:53 PM 3.0 °F - -2.0 °F 80% 30.49 in 10.0 mi Calm Calm - N/A   Clear
8:53 PM -0.0 °F - -4.0 °F 83% 30.49 in 10.0 mi Calm Calm - N/A   Clear
9:25 PM -0.4 °F - -5.8 °F 78% 30.29 in 10.0 mi Calm Calm - N/A   Clear
9:53 PM -2.0 °F - -7.1 °F 79% 30.49 in 10.0 mi Calm Calm - N/A   Clear
10:53 PM -4.0 °F - -9.0 °F 79% 30.46 in 10.0 mi Calm Calm - N/A   Clear
11:53 PM -6.0 °F - -11.0 °F 79% 30.47 in 10.0 mi Calm Calm - N/A   Clear